Regional Weather Roundup
Issued by NWS Little Rock, AR

Home | Current Version | Previous Version | Text Only | Print | Product List | Glossary On
Versions: 1 2 3 4 5 6 7 8 9 10 11 12 13 14 15 16 17 18 19 20 21 22 23 24 25 26 27 28 29 30 31 32 33 34 35 36 37 38 39 40 41 42 43 44 45 46 47 48 49
000
ASUS44 KLZK 310405
RWRLZK

WEATHER ROUNDUP FOR ARKANSAS
NATIONAL WEATHER SERVICE LITTLE ROCK AR
1100 PM CDT THU JUL 30 2015

NOTE: "FAIR" INDICATES FEW OR NO CLOUDS BELOW 12,000 FEET WITH NO
SIGNIFICANT WEATHER AND/OR OBSTRUCTIONS TO VISIBILITY.

ARZ001-003-010-029-310500-
NORTHWEST ARKANSAS

CITY           SKY/WX    TMP DP  RH WIND       PRES   REMARKS
FAYETTEVILLE   PTCLDY    70  69  97 CALM      30.17R
FORT SMITH     MOCLDY    78  71  79 E3        30.11R
HARRISON       CLEAR     68  65  90 CALM      30.18R
BENTONVILLE    CLEAR     75  63  64 E3        30.18R
ROGERS         CLEAR     73  66  78 E3        30.18R
SILOAM SPGS    CLEAR     73  63  68 CALM      30.15R
HIGHFILL       CLEAR     75  66  73 NE3       30.17R
$$

ARZ004-005-016-310500-
NORTH CENTRAL ARKANSAS

CITY           SKY/WX    TMP DP  RH WIND       PRES   REMARKS
BATESVILLE     PTCLDY    72  64  78 CALM      30.12S
FLIPPIN        PTCLDY    72  64  78 CALM      30.13S
MTN HOME       PTCLDY    70  67  90 CALM      30.15R
$$

ARZ040-041-310500-
WEST CENTRAL ARKANSAS

CITY           SKY/WX    TMP DP  RH WIND       PRES   REMARKS
MENA           PTCLDY    73  72  94 CALM      30.13S
MOUNT IDA      PTCLDY    74  72  93 NW3       30.11R FOG
$$

ARZ009-017-025-026-028-310500-
NORTHEAST ARKANSAS

CITY           SKY/WX    TMP DP  RH WIND       PRES   REMARKS
JONESBORO      PTCLDY    71  66  84 N5        30.10S
NEWPORT        PTCLDY    74  69  84 NE5       30.12S
WALNUT RIDGE   PTCLDY    75  66  73 N5        30.11S
BLYTHEVILLE    CLEAR     72  68  87 N3        30.10F
$$

ARZ022-023-033-042-044-310500-
CENTRAL ARKANSAS

CITY           SKY/WX    TMP DP  RH WIND       PRES   REMARKS
LITTLE ROCK    MOCLDY    78  63  59 NE5       30.10R
N LITTLE ROCK  MOCLDY    77  65  65 E6        30.10R
JACKSONVILLE   PTCLDY    74  64  71 NE2       30.10R
SEARCY         PTCLDY    76  64  66 NE5       30.12R
HOT SPRINGS    PTCLDY    79  64  60 E6        30.11R
RUSSELLVILLE   MOCLDY    76  65  68 CALM      30.11R
$$

ARZ036-310500-
EAST ARKANSAS

CITY           SKY/WX    TMP DP  RH WIND       PRES   REMARKS
WEST MEMPHIS   CLEAR     74  66  76 N5        30.08S
$$

ARZ050-053-066-070-073-310500-
SOUTHWEST ARKANSAS

CITY           SKY/WX    TMP DP  RH WIND       PRES   REMARKS
ARKADELPHIA    FAIR      79  68  69 NE6       30.09R
CAMDEN         PTCLDY    73  63  68 NE3       30.07R
TEXARKANA      MOCLDY    78  74  87 NE3       30.07R
EL DORADO      PTCLDY    77  65  66 NE5       30.06R
DE QUEEN       CLEAR     75  74  96 CALM      30.07R
$$

ARZ056-057-069-310500-
SOUTHEAST ARKANSAS

CITY           SKY/WX    TMP DP  RH WIND       PRES   REMARKS
PINE BLUFF     PTCLDY    76  65  68 N5        30.09R
STUTTGART      CLEAR     73  64  73 MISG      30.08S
MONTICELLO     CLEAR     77  67  71 VRB3      30.06S

$$




USA.gov is the U.S. government's official web portal to all federal, state and local government web resources and services.